Weather History for Crosby, ND

Change the Weather History Date:

Wednesday, November 21, 2012

  Actual Average (KISN) Record (KISN)
Temperature  
Mean Temperature 29 °F 24 °F  
Max Temperature 37 °F 34 °F 58 °F (1987)
Min Temperature 21 °F 14 °F -22 °F (1978)
Degree Days  
Heating Degree Days 36 41  
Month to date heating degree days 742  
Since 1 July heating degree days 1769  
Cooling Degree Days 0 0  
Month to date cooling degree days 0  
Year to date cooling degree days 456  
Moisture  
Dew Point 30 °F    
Average Humidity 97    
Maximum Humidity 100    
Minimum Humidity 81    
Precipitation  
Precipitation 0.00 in 0.02 in 0.40 in (1895)
Month to date precipitation 0.49  
Year to date precipitation 13.59  
Sea Level Pressure  
Sea Level Pressure 29.71 in    
Wind  
Wind Speed 6 mph (North)    
Max Wind Speed 16 mph    
Max Gust Speed 21 mph    
Visibility 7 miles    
Events Rain    
T = Trace of Precipitation, MM = Missing Value Source: NWS Daily Summary

Daily Weather History Graph

Daily Weather History Graph

Search for Another Location

Airport:

Trip Planner

Search our weather history database for the weather conditions in past years. The results will help you decide how hot, cold, wet, or windy it might be!

Date:

Astronomy

Nov. 21, 2012 Rise Set
Actual Time 8:12 AM CST 5:05 PM CST
Civil Twilight 7:37 AM CST 5:40 PM CST
Nautical Twilight 6:58 AM CST 6:19 PM CST
Astronomical Twilight 6:20 AM CST 6:57 PM CST
Moon 1:51 PM CST (11/21) 1:02 AM CST (11/21)
Length of Visible Light 10h 03m
Length of Day
8h 53m
First Quarter, 62% of the Moon is Illuminated
Nov 21
First Quarter
Nov 28
Full
Dec 6
Last Quarter
Dec 13
New
Dec 19
First Quarter

Hourly Weather History & Observations

Time (CST) Temp. Windchill Dew Point Humidity Pressure Visibility Wind Dir Wind Speed Gust Speed Precip Events Conditions
12:15 AM 32.0 °F 28.7 °F 32.0 °F 100% 29.82 in 10.0 mi NNW 3.5 mph - N/A   Clear
12:35 AM 32.0 °F 27.5 °F 30.2 °F 93% 29.82 in 10.0 mi WNW 4.6 mph - N/A   Clear
12:55 AM 32.0 °F 25.6 °F 32.0 °F 100% 29.82 in 10.0 mi NNW 6.9 mph - N/A   Clear
1:15 AM 30.2 °F 25.4 °F 30.2 °F 100% 29.81 in 10.0 mi NW 4.6 mph - N/A   Clear
1:35 AM 28.4 °F 22.2 °F 28.4 °F 100% 29.81 in 10.0 mi NW 5.8 mph - N/A   Clear
1:55 AM 28.4 °F 20.4 °F 28.4 °F 100% 29.81 in 10.0 mi NW 8.1 mph - N/A   Clear
2:15 AM 28.4 °F 22.2 °F 28.4 °F 100% 29.81 in 10.0 mi NW 5.8 mph - N/A   Clear
2:35 AM 28.4 °F 21.2 °F 28.4 °F 100% 29.81 in 10.0 mi NW 6.9 mph - N/A   Clear
2:55 AM 28.4 °F 20.4 °F 28.4 °F 100% 29.81 in 10.0 mi NW 8.1 mph - N/A   Clear
3:15 AM 26.6 °F - 26.6 °F 100% 29.81 in 8.0 mi Calm Calm - N/A   Clear
3:35 AM 26.6 °F - 26.6 °F 100% 29.81 in 7.0 mi Calm Calm - N/A   Clear
3:55 AM 24.8 °F 20.5 °F 24.8 °F 100% 29.81 in 5.0 mi NNW 3.5 mph - N/A   Clear
4:15 AM 24.8 °F - 24.8 °F 100% 29.80 in 3.0 mi Calm Calm - N/A   Clear
4:35 AM 24.8 °F 19.1 °F 24.8 °F 100% 29.80 in 2.0 mi WNW 4.6 mph - N/A   Clear
4:55 AM 24.8 °F 20.5 °F 24.8 °F 100% 29.80 in 3.0 mi WSW 3.5 mph - N/A   Clear
5:15 AM 24.8 °F 19.1 °F 24.8 °F 100% 29.80 in 3.0 mi West 4.6 mph - N/A   Clear
5:35 AM 24.8 °F 14.6 °F 24.8 °F 100% 29.80 in 4.0 mi NW 10.4 mph - N/A   Clear
5:55 AM 26.6 °F 18.2 °F 26.6 °F 100% 29.80 in 3.0 mi NW 8.1 mph - N/A   Partly Cloudy
6:15 AM 24.8 °F 16.1 °F 24.8 °F 100% 29.79 in 4.0 mi NW 8.1 mph - N/A   Clear
6:35 AM 24.8 °F 16.9 °F 24.8 °F 100% 29.79 in 4.0 mi NW 6.9 mph - N/A   Clear
6:55 AM 24.8 °F - 24.8 °F 100% 29.77 in 4.0 mi Calm Calm - N/A   Clear
7:15 AM 23.0 °F - 23.0 °F 100% 29.76 in 3.0 mi Calm Calm - N/A   Clear
7:35 AM 21.2 °F - 21.2 °F 100% 29.76 in 4.0 mi Calm Calm - N/A   Clear
7:55 AM 21.2 °F 14.9 °F 21.2 °F 100% 29.75 in 5.0 mi SE 4.6 mph - N/A   Clear
8:15 AM 24.8 °F 17.9 °F 24.8 °F 100% 29.75 in 5.0 mi SSE 5.8 mph - N/A   Clear
8:35 AM 24.8 °F 16.9 °F 24.8 °F 100% 29.75 in 6.0 mi SSE 6.9 mph - N/A   Clear
8:55 AM 26.6 °F - 26.6 °F 100% 29.75 in 7.0 mi Calm Calm - N/A   Clear
9:15 AM 24.8 °F 17.9 °F 24.8 °F 100% 29.73 in 5.0 mi ENE 5.8 mph - N/A   Clear
9:35 AM 24.8 °F 16.1 °F 24.8 °F 100% 29.72 in 6.0 mi ENE 8.1 mph - N/A   Clear
9:55 AM 28.4 °F 24.6 °F 28.4 °F 100% 29.73 in 6.0 mi East 3.5 mph - N/A   Clear
10:15 AM 32.0 °F 26.4 °F 32.0 °F 100% 29.72 in 7.0 mi East 5.8 mph - N/A   Clear
10:35 AM 32.0 °F 25.6 °F 32.0 °F 100% 29.71 in 8.0 mi East 6.9 mph - N/A   Clear
10:55 AM 32.0 °F 25.6 °F 32.0 °F 100% 29.69 in 8.0 mi East 6.9 mph - N/A   Clear
11:15 AM 32.0 °F 26.4 °F 32.0 °F 100% 29.69 in 8.0 mi ENE 5.8 mph - N/A   Clear
11:35 AM 33.8 °F 27.7 °F 32.0 °F 93% 29.68 in 10.0 mi East 6.9 mph - N/A   Clear
11:55 AM 35.6 °F 29.9 °F 32.0 °F 87% 29.67 in 10.0 mi East 6.9 mph - N/A   Clear
12:15 PM 35.6 °F 28.6 °F 32.0 °F 87% 29.65 in 10.0 mi East 9.2 mph - N/A   Clear
12:35 PM 35.6 °F 29.9 °F 32.0 °F 87% 29.64 in 10.0 mi ENE 6.9 mph - N/A   Clear
12:55 PM 37.4 °F 32.8 °F 32.0 °F 81% 29.64 in 10.0 mi ESE 5.8 mph - N/A   Clear
1:15 PM 37.4 °F 32.1 °F 33.8 °F 87% 29.62 in 10.0 mi East 6.9 mph - N/A   Scattered Clouds
1:35 PM 37.4 °F 32.8 °F 33.8 °F 87% 29.62 in 10.0 mi NE 5.8 mph - N/A   Mostly Cloudy
1:55 PM 37.4 °F 31.4 °F 32.0 °F 81% 29.61 in 10.0 mi NNE 8.1 mph - N/A   Scattered Clouds
2:15 PM 37.4 °F 32.1 °F 32.0 °F 81% 29.61 in 10.0 mi NE 6.9 mph - N/A   Clear
2:35 PM 35.6 °F 31.7 °F 32.0 °F 87% 29.60 in 10.0 mi NE 4.6 mph - N/A   Scattered Clouds
2:55 PM 37.4 °F 34.9 °F 32.0 °F 81% 29.60 in 10.0 mi North 3.5 mph - N/A   Scattered Clouds
3:15 PM 37.4 °F 34.9 °F 32.0 °F 81% 29.60 in 10.0 mi NNE 3.5 mph - N/A   Mostly Cloudy
3:35 PM 35.6 °F 32.8 °F 32.0 °F 87% 29.60 in 10.0 mi East 3.5 mph - N/A   Mostly Cloudy
3:55 PM 35.6 °F - 32.0 °F 87% 29.60 in 10.0 mi Calm Calm - N/A   Mostly Cloudy
4:15 PM 37.4 °F 34.9 °F 32.0 °F 81% 29.58 in 10.0 mi East 3.5 mph - N/A   Scattered Clouds
4:35 PM 35.6 °F 31.7 °F 32.0 °F 87% 29.58 in 10.0 mi East 4.6 mph - N/A   Partly Cloudy
4:55 PM 32.0 °F 28.7 °F 32.0 °F 100% 29.59 in 10.0 mi North 3.5 mph - N/A   Clear
5:15 PM 32.0 °F 26.4 °F 32.0 °F 100% 29.59 in 10.0 mi North 5.8 mph - N/A   Clear
5:35 PM 32.0 °F 23.0 °F 32.0 °F 100% 29.62 in 9.0 mi NW 11.5 mph - N/A   Clear
5:55 PM 32.0 °F 23.6 °F 32.0 °F 100% 29.63 in 8.0 mi NW 10.4 mph - N/A   Clear
6:15 PM 32.0 °F 23.6 °F 32.0 °F 100% 29.63 in 7.0 mi NW 10.4 mph - N/A   Partly Cloudy
6:35 PM 32.0 °F 23.0 °F 32.0 °F 100% 29.64 in 7.0 mi NW 11.5 mph - N/A   Mostly Cloudy
6:55 PM 32.0 °F 23.6 °F 32.0 °F 100% 29.64 in 7.0 mi NNW 10.4 mph - N/A   Overcast
7:15 PM 32.0 °F 22.5 °F 32.0 °F 100% 29.64 in 6.0 mi NW 12.7 mph - N/A   Overcast
7:35 PM 32.0 °F 23.0 °F 32.0 °F 100% 29.65 in 6.0 mi NW 11.5 mph - N/A   Overcast
7:55 PM 32.0 °F 23.6 °F 32.0 °F 100% 29.67 in 5.0 mi WNW 10.4 mph - N/A   Overcast
8:15 PM 32.0 °F 23.6 °F 32.0 °F 100% 29.67 in 5.0 mi NW 10.4 mph - N/A   Overcast
8:35 PM 32.0 °F 22.1 °F 32.0 °F 100% 29.68 in 5.0 mi NW 13.8 mph - N/A   Overcast
8:55 PM 32.0 °F 21.2 °F 32.0 °F 100% 29.68 in 3.0 mi NW 16.1 mph 20.7 mph N/A   Overcast
9:15 PM 32.0 °F 22.1 °F 32.0 °F 100% 29.68 in 2.0 mi NW 13.8 mph 20.7 mph N/A   Overcast
9:35 PM 32.0 °F 22.1 °F 32.0 °F 100% 29.70 in 2.5 mi NW 13.8 mph - N/A   Overcast
9:55 PM 32.0 °F 22.1 °F 32.0 °F 100% 29.71 in 3.0 mi NW 13.8 mph - N/A   Overcast
10:15 PM 32.0 °F 21.6 °F 32.0 °F 100% 29.71 in 2.0 mi NW 15.0 mph - N/A Rain Light Rain
10:35 PM 32.0 °F 22.1 °F 32.0 °F 100% 29.71 in 5.0 mi NW 13.8 mph 19.6 mph N/A   Overcast
10:55 PM 32.0 °F 22.1 °F 32.0 °F 100% 29.71 in 7.0 mi NW 13.8 mph - N/A   Overcast
11:15 PM 32.0 °F 22.1 °F 32.0 °F 100% 29.73 in 10.0 mi NW 13.8 mph 18.4 mph N/A   Overcast
11:35 PM 30.2 °F 19.3 °F 30.2 °F 100% 29.73 in 10.0 mi NW 15.0 mph - N/A   Overcast
11:55 PM 28.4 °F 16.6 °F 28.4 °F 100% 29.73 in 10.0 mi WNW 16.1 mph - N/A   Overcast